When you browse on this site, cookies collect data to enhance your experience and personalize the content and advertising you see.
Visit our Privacy Policy to learn more. By continuing to use the site, you agree to this use of cookies and data.
  • In France
  • List of Countries
  • For 7 days
  • Water Temperature
  • Weather Map
  • Weather Widgets
  • user-avatar
    Login

    Hourly Weather Haleb

    Today, 27 May, Wednesday

    Time Temperature Precipitation Wind Pressure Humidity
    00:00 +25°C° 0 mm 3 mps 724 mmHg 33%
    01:00 +24°C° 0 mm 3 mps 723 mmHg 35%
    02:00 +22°C° 0 mm 3 mps 723 mmHg 37%
    03:00 +22°C° 0 mm 3 mps 723 mmHg 38%
    04:00 +22°C° 0 mm 3 mps 723 mmHg 40%
    05:00 +22°C° 0 mm 4 mps 724 mmHg 42%
    06:00 +25°C° 0 mm 5 mps 724 mmHg 36%
    07:00 +27°C° 0 mm 6 mps 724 mmHg 31%
    08:00 +29°C° 0 mm 7 mps 724 mmHg 25%
    09:00 +30°C° 0 mm 6 mps 724 mmHg 22%
    10:00 +33°C° 0 mm 5 mps 724 mmHg 19%
    11:00 +34°C° 0 mm 5 mps 724 mmHg 16%
    12:00 +35°C° 0 mm 4 mps 724 mmHg 14%
    13:00 +36°C° 0 mm 4 mps 723 mmHg 13%
    14:00 +37°C° 0 mm 3 mps 723 mmHg 11%
    15:00 +36°C° 0 mm 4 mps 723 mmHg 14%
    16:00 +36°C° 0 mm 5 mps 722 mmHg 16%
    17:00 +35°C° 0 mm 6 mps 722 mmHg 18%
    18:00 +32°C° 0 mm 6 mps 722 mmHg 25%
    19:00 +29°C° 0 mm 6 mps 722 mmHg 31%
    20:00 +26°C° 0 mm 7 mps 722 mmHg 37%
    21:00 +24°C° 0 mm 6 mps 722 mmHg 40%
    22:00 +23°C° 0 mm 5 mps 722 mmHg 44%
    23:00 +22°C° 0 mm 4 mps 722 mmHg 47%

    Tomorrow, 28 May, Thursday

    Time Temperature Precipitation Wind Pressure Humidity
    00:00 +21°C° 0 mm 5 mps 722 mmHg 50%
    01:00 +20°C° 0 mm 5 mps 722 mmHg 53%
    02:00 +20°C° 0 mm 5 mps 722 mmHg 55%
    03:00 +19°C° 0 mm 5 mps 722 mmHg 60%
    04:00 +19°C° 0 mm 5 mps 722 mmHg 65%
    05:00 +17°C° 0 mm 5 mps 722 mmHg 70%
    06:00 +20°C° 0 mm 6 mps 722 mmHg 63%
    07:00 +22°C° 0 mm 6 mps 722 mmHg 57%
    08:00 +23°C° 0 mm 7 mps 723 mmHg 51%
    09:00 +26°C° 0 mm 7 mps 723 mmHg 45%
    10:00 +27°C° 0 mm 8 mps 723 mmHg 39%
    11:00 +29°C° 0 mm 8 mps 723 mmHg 34%
    12:00 +29°C° 0 mm 8 mps 723 mmHg 32%
    13:00 +29°C° 0 mm 9 mps 722 mmHg 30%
    14:00 +29°C° 0 mm 9 mps 722 mmHg 28%
    15:00 +28°C° 0 mm 9 mps 722 mmHg 30%
    16:00 +27°C° 0 mm 9 mps 722 mmHg 32%
    17:00 +24°C° 0 mm 9 mps 722 mmHg 34%
    18:00 +23°C° 0 mm 9 mps 722 mmHg 40%
    19:00 +21°C° 0 mm 8 mps 722 mmHg 46%
    20:00 +18°C° 0 mm 8 mps 722 mmHg 53%
    21:00 +18°C° 0 mm 8 mps 722 mmHg 58%
    22:00 +17°C° 0 mm 8 mps 722 mmHg 64%
    23:00 +16°C° 0 mm 7 mps 722 mmHg 69%

    Day after tomorrow, 29 May, Friday

    Time Temperature Precipitation Wind Pressure Humidity
    00:00 +16°C° 0 mm 7 mps 722 mmHg 72%
    01:00 +16°C° 0 mm 7 mps 722 mmHg 75%
    02:00 +15°C° 0 mm 7 mps 721 mmHg 77%
    03:00 +15°C° 0 mm 7 mps 721 mmHg 77%
    04:00 +15°C° 0 mm 7 mps 722 mmHg 77%
    05:00 +15°C° 0 mm 7 mps 722 mmHg 76%
    06:00 +16°C° 0 mm 8 mps 722 mmHg 68%
    07:00 +18°C° 0 mm 8 mps 722 mmHg 59%
    08:00 +19°C° 0 mm 9 mps 722 mmHg 50%
    09:00 +21°C° 0 mm 9 mps 723 mmHg 46%
    10:00 +22°C° 0 mm 10 mps 723 mmHg 43%
    11:00 +23°C° 0 mm 11 mps 723 mmHg 39%
    12:00 +23°C° 0 mm 11 mps 723 mmHg 40%
    13:00 +24°C° 0 mm 12 mps 723 mmHg 41%
    14:00 +24°C° 0 mm 12 mps 723 mmHg 42%
    15:00 +23°C° 0 mm 12 mps 723 mmHg 44%
    16:00 +22°C° 0 mm 11 mps 723 mmHg 46%
    17:00 +22°C° 0 mm 11 mps 723 mmHg 48%
    18:00 +21°C° 0 mm 10 mps 723 mmHg 55%
    19:00 +18°C° 0 mm 9 mps 723 mmHg 61%
    20:00 +17°C° 0 mm 8 mps 724 mmHg 68%
    21:00 +17°C° 0 mm 7 mps 724 mmHg 72%
    22:00 +16°C° 0 mm 6 mps 724 mmHg 76%
    23:00 +17°C° 0 mm 4 mps 724 mmHg 80%

    30 May, Saturday

    Time Temperature Precipitation Wind Pressure Humidity
    00:00 +17°C° 0 mm 4 mps 724 mmHg 82%
    01:00 +15°C° 0 mm 4 mps 724 mmHg 84%
    02:00 +15°C° 0 mm 4 mps 724 mmHg 86%
    03:00 +15°C° 0 mm 4 mps 724 mmHg 86%
    04:00 +16°C° 0 mm 3 mps 724 mmHg 85%
    05:00 +16°C° 0 mm 3 mps 724 mmHg 85%
    06:00 +17°C° 0 mm 3 mps 724 mmHg 73%
    07:00 +19°C° 0 mm 4 mps 725 mmHg 61%
    08:00 +21°C° 0 mm 4 mps 725 mmHg 49%
    09:00 +22°C° 0 mm 4 mps 725 mmHg 43%
    10:00 +25°C° 0 mm 4 mps 725 mmHg 36%
    11:00 +26°C° 0 mm 3 mps 726 mmHg 30%
    12:00 +27°C° 0 mm 4 mps 725 mmHg 28%
    13:00 +28°C° 0 mm 4 mps 725 mmHg 25%
    14:00 +29°C° 0 mm 5 mps 725 mmHg 23%
    15:00 +28°C° 0 mm 5 mps 725 mmHg 27%
    16:00 +27°C° 0 mm 6 mps 724 mmHg 31%
    17:00 +26°C° 0 mm 7 mps 724 mmHg 34%
    18:00 +24°C° 0 mm 6 mps 724 mmHg 40%
    19:00 +22°C° 0 mm 6 mps 725 mmHg 46%
    20:00 +20°C° 0 mm 5 mps 725 mmHg 51%
    21:00 +20°C° 0 mm 4 mps 725 mmHg 56%
    22:00 +19°C° 0 mm 4 mps 725 mmHg 61%
    23:00 +18°C° 0 mm 4 mps 725 mmHg 66%

    31 May, Sunday

    Time Temperature Precipitation Wind Pressure Humidity
    00:00 +18°C° 0 mm 3 mps 725 mmHg 70%
    01:00 +17°C° 0 mm 3 mps 724 mmHg 74%
    02:00 +16°C° 0 mm 3 mps 724 mmHg 79%
    03:00 +16°C° 0 mm 2 mps 724 mmHg 80%
    04:00 +16°C° 0 mm 2 mps 724 mmHg 81%
    05:00 +16°C° 0 mm 2 mps 724 mmHg 82%
    06:00 +18°C° 0 mm 2 mps 724 mmHg 72%
    07:00 +20°C° 0 mm 1 mps 725 mmHg 61%
    08:00 +22°C° 0 mm 1 mps 725 mmHg 51%
    09:00 +24°C° 0 mm 2 mps 725 mmHg 41%
    10:00 +26°C° 0 mm 2 mps 725 mmHg 32%
    11:00 +28°C° 0 mm 2 mps 725 mmHg 22%
    12:00 +29°C° 0 mm 3 mps 724 mmHg 20%
    13:00 +30°C° 0 mm 3 mps 724 mmHg 17%
    14:00 +31°C° 0 mm 3 mps 724 mmHg 14%
    15:00 +31°C° 0 mm 3 mps 723 mmHg 15%
    16:00 +32°C° 0 mm 4 mps 723 mmHg 15%
    17:00 +32°C° 0 mm 4 mps 723 mmHg 15%
    18:00 +29°C° 0 mm 4 mps 723 mmHg 21%
    19:00 +27°C° 0 mm 4 mps 723 mmHg 26%
    20:00 +25°C° 0 mm 4 mps 723 mmHg 32%
    21:00 +24°C° 0 mm 3 mps 722 mmHg 35%
    22:00 +22°C° 0 mm 3 mps 722 mmHg 39%
    23:00 +21°C° 0 mm 3 mps 722 mmHg 42%

    1 June, Monday

    Time Temperature Precipitation Wind Pressure Humidity
    00:00 +21°C° 0 mm 3 mps 722 mmHg 45%
    01:00 +20°C° 0 mm 3 mps 722 mmHg 48%
    02:00 +19°C° 0 mm 3 mps 721 mmHg 51%
    03:00 +19°C° 0 mm 3 mps 721 mmHg 52%
    04:00 +18°C° 0 mm 3 mps 722 mmHg 53%
    05:00 +18°C° 0 mm 3 mps 722 mmHg 54%
    06:00 +20°C° 0 mm 3 mps 722 mmHg 46%
    07:00 +22°C° 0 mm 3 mps 722 mmHg 38%
    08:00 +25°C° 0 mm 3 mps 722 mmHg 30%
    09:00 +27°C° 0 mm 3 mps 723 mmHg 25%
    10:00 +28°C° 0 mm 4 mps 723 mmHg 21%
    11:00 +30°C° 0 mm 4 mps 723 mmHg 17%
    12:00 +32°C° 0 mm 5 mps 722 mmHg 17%
    13:00 +32°C° 0 mm 6 mps 722 mmHg 16%
    14:00 +33°C° 0 mm 7 mps 722 mmHg 16%
    15:00 +32°C° 0 mm 7 mps 722 mmHg 19%
    16:00 +30°C° 0 mm 7 mps 722 mmHg 22%
    17:00 +29°C° 0 mm 7 mps 721 mmHg 25%
    18:00 +27°C° 0 mm 6 mps 722 mmHg 29%
    19:00 +26°C° 0 mm 5 mps 722 mmHg 33%
    20:00 +23°C° 0 mm 4 mps 722 mmHg 37%
    21:00 +22°C° 0 mm 4 mps 722 mmHg 39%
    22:00 +22°C° 0 mm 5 mps 722 mmHg 41%
    23:00 +21°C° 0 mm 5 mps 721 mmHg 43%
    Show more